Newark, NJ

10:07 PM EDT on October 22, 2019 (GMT -0400)
Newark International

Weather History for KEWR - May, 2019

Change the Weather History Date:

Thursday, May 9, 2019

  Actual Average Record
Temperature  
Mean Temperature 57 °F 60 °F  
Max Temperature 59 °F 70 °F 93 °F (2000)
Min Temperature 55 °F 51 °F 33 °F (1947)
Degree Days  
Heating Degree Days 8 6  
Month to date heating degree days 48 60  
Since 1 July heating degree days 4642 4780  
Cooling Degree Days 0 1  
Month to date cooling degree days 0 9  
Year to date cooling degree days 15 21  
Growing Degree Days 7 (Base 50)    
Moisture  
Dew Point 44 °F    
Average Humidity 67    
Maximum Humidity 86    
Minimum Humidity 47    
Precipitation  
Precipitation 0.00 in 0.12 in 1.46 in (2013)
Month to date precipitation 1.94 1.11  
Year to date precipitation 17.59 15.91  
Snow  
Snow 0.00 in 0.00 in T in (1977)
Month to date snowfall 0.0 0.0  
Since 1 July snowfall 22.0 28.5  
Snow Depth 0.00 in    
Sea Level Pressure  
Sea Level Pressure 30.29 in    
Wind  
Wind Speed 10 mph (East)    
Max Wind Speed 17 mph    
Max Gust Speed 23 mph    
Visibility 10 miles    
Events      
T = Trace of Precipitation, MM = Missing Value Source: NWS Daily Summary

Daily Weather History Graph

Daily Weather History Graph

Search for Another Location

Airport or City:

Astronomy

May. 09, 2019 Rise Set
Actual Time 5:46 AM EDT 8:00 PM EDT
Civil Twilight 5:15 AM EDT 8:31 PM EDT
Nautical Twilight 4:38 AM EDT 9:08 PM EDT
Astronomical Twilight 3:57 AM EDT 9:50 PM EDT
Moon 9:38 AM EDT (5/9) No Moon Set
Length of Visible Light 15h 15m
Length of Day
14h 14m
Waxing Crescent, 24% of the Moon is Illuminated
May 9
Waxing Crescent
May 11
First Quarter
May 18
Full
May 26
Last Quarter
Jun 3
New

Hourly Weather History & Observations

Time (EDT) Temp. Dew Point Humidity Pressure Visibility Wind Dir Wind Speed Gust Speed Precip Events Conditions
12:51 AM 57.9 °F 51.1 °F 78% 30.27 in 10.0 mi ENE 4.6 mph - N/A   Scattered Clouds
1:51 AM 57.0 °F 52.0 °F 83% 30.28 in 10.0 mi ENE 3.5 mph - N/A   Mostly Cloudy
2:51 AM 57.0 °F 53.1 °F 87% 30.29 in 10.0 mi East 5.8 mph - N/A   Overcast
3:51 AM 57.0 °F 51.1 °F 81% 30.29 in 10.0 mi ENE 5.8 mph - N/A   Mostly Cloudy
4:51 AM 55.9 °F 50.0 °F 80% 30.29 in 10.0 mi ENE 6.9 mph - N/A   Partly Cloudy
5:51 AM 55.0 °F 46.9 °F 74% 30.29 in 10.0 mi Variable 5.8 mph - N/A   Scattered Clouds
6:51 AM 55.0 °F 42.1 °F 62% 30.32 in 10.0 mi ENE 10.4 mph - N/A   Mostly Cloudy
7:51 AM 55.9 °F 39.9 °F 55% 30.33 in 10.0 mi East 11.5 mph - N/A   Mostly Cloudy
8:51 AM 55.9 °F 37.0 °F 49% 30.34 in 10.0 mi ENE 11.5 mph - N/A   Overcast
9:51 AM 57.9 °F 37.0 °F 46% 30.32 in 10.0 mi East 9.2 mph 16.1 mph N/A   Overcast
10:51 AM 57.9 °F 41.0 °F 53% 30.32 in 10.0 mi East 11.5 mph - N/A   Overcast
11:51 AM 57.0 °F 39.0 °F 51% 30.31 in 10.0 mi East 12.7 mph - N/A   Overcast
12:51 PM 57.9 °F 39.0 °F 49% 30.30 in 10.0 mi East 15.0 mph 23.0 mph N/A   Overcast
1:51 PM 57.9 °F 39.9 °F 51% 30.31 in 10.0 mi East 11.5 mph 19.6 mph N/A   Overcast
2:51 PM 57.9 °F 39.0 °F 49% 30.29 in 10.0 mi ESE 11.5 mph 19.6 mph N/A   Overcast
3:51 PM 55.9 °F 39.0 °F 53% 30.29 in 10.0 mi ESE 13.8 mph 19.6 mph N/A   Overcast
4:51 PM 55.9 °F 42.1 °F 60% 30.28 in 10.0 mi ESE 11.5 mph 16.1 mph N/A   Overcast
5:51 PM 55.0 °F 43.0 °F 64% 30.27 in 10.0 mi East 12.7 mph - N/A   Overcast
6:51 PM 55.0 °F 45.0 °F 69% 30.26 in 10.0 mi East 8.1 mph - N/A   Overcast
7:51 PM 55.0 °F 46.0 °F 72% 30.25 in 10.0 mi East 12.7 mph - N/A   Overcast
8:51 PM 55.9 °F 46.0 °F 69% 30.25 in 10.0 mi East 9.2 mph - N/A   Overcast
9:51 PM 55.9 °F 46.9 °F 72% 30.24 in 10.0 mi ESE 11.5 mph 18.4 mph N/A   Overcast
10:51 PM 55.9 °F 46.9 °F 72% 30.23 in 10.0 mi ESE 10.4 mph - N/A   Overcast
11:51 PM 55.9 °F 46.9 °F 72% 30.22 in 10.0 mi ESE 12.7 mph 19.6 mph N/A   Overcast